TimeCST,TemperatureF,Dew PointF,Humidity,Sea Level PressureIn,VisibilityMPH,Wind Direction,Wind SpeedMPH,Gust SpeedMPH,PrecipitationIn,Events,Conditions,WindDirDegrees,DateUTC
12:15 AM,33.8,26.6,75,30.22,10.0,NNW,20.7,29.9,N/A,,Overcast,340,2011-11-27 06:15:00
12:35 AM,32.0,24.8,75,30.22,10.0,NNW,24.2,33.4,N/A,,Overcast,340,2011-11-27 06:35:00
1:35 AM,32.0,24.8,75,30.22,10.0,NNW,21.9,26.5,N/A,,Overcast,340,2011-11-27 07:35:00
1:55 AM,32.0,23.0,69,30.22,10.0,NNW,24.2,29.9,N/A,,Overcast,330,2011-11-27 07:55:00
2:35 AM,30.2,23.0,75,30.23,10.0,North,25.3,32.2,N/A,,Overcast,350,2011-11-27 08:35:00
2:55 AM,30.2,23.0,75,30.24,10.0,NNW,21.9,32.2,N/A,,Overcast,340,2011-11-27 08:55:00
3:15 AM,30.2,24.8,80,30.24,10.0,NNW,20.7,26.5,N/A,,Overcast,340,2011-11-27 09:15:00
3:35 AM,30.2,24.8,80,30.24,10.0,NNW,21.9,26.5,N/A,,Overcast,330,2011-11-27 09:35:00
3:54 AM,30.2,23.0,75,30.23,10.0,North,24.2,-,N/A,,Overcast,350,2011-11-27 09:54:00
4:15 AM,30.2,23.0,75,30.23,10.0,North,23.0,28.8,N/A,,Overcast,350,2011-11-27 10:15:00
4:35 AM,30.2,23.0,75,30.24,10.0,NNW,17.3,27.6,N/A,,Overcast,340,2011-11-27 10:35:00
5:15 AM,30.2,23.0,75,30.24,10.0,NNW,21.9,26.5,N/A,,Overcast,340,2011-11-27 11:15:00
5:35 AM,30.2,23.0,75,30.25,10.0,NNW,19.6,-,N/A,,Overcast,340,2011-11-27 11:35:00
5:55 AM,30.2,23.0,75,30.24,10.0,NNW,20.7,-,N/A,,Overcast,340,2011-11-27 11:55:00
6:35 AM,30.2,23.0,75,30.26,10.0,NNW,18.4,26.5,N/A,,Overcast,340,2011-11-27 12:35:00
6:55 AM,30.2,23.0,75,30.26,10.0,North,21.9,27.6,N/A,,Overcast,350,2011-11-27 12:55:00
7:15 AM,28.4,21.2,74,30.27,10.0,North,23.0,31.1,N/A,,Overcast,350,2011-11-27 13:15:00
7:55 AM,28.4,21.2,74,30.26,10.0,NNW,11.5,18.4,N/A,,Overcast,330,2011-11-27 13:55:00
8:15 AM,28.4,21.2,74,30.26,10.0,NNW,11.5,-,N/A,,Overcast,330,2011-11-27 14:15:00
8:35 AM,28.4,21.2,74,30.27,10.0,NW,10.4,-,N/A,,Overcast,320,2011-11-27 14:35:00
8:55 AM,28.4,21.2,74,30.27,10.0,NNW,13.8,-,N/A,,Overcast,330,2011-11-27 14:55:00
9:15 AM,28.4,21.2,74,30.27,10.0,NNW,15.0,-,N/A,,Overcast,330,2011-11-27 15:15:00
9:35 AM,28.4,21.2,74,30.27,10.0,NNW,12.7,-,N/A,,Overcast,340,2011-11-27 15:35:00
9:55 AM,28.4,21.2,74,30.28,10.0,NNW,12.7,-,N/A,,Overcast,340,2011-11-27 15:55:00
10:15 AM,28.4,21.2,74,30.28,10.0,NNW,13.8,-,N/A,,Overcast,340,2011-11-27 16:15:00
10:35 AM,28.4,21.2,74,30.28,10.0,NNW,13.8,-,N/A,,Overcast,340,2011-11-27 16:35:00
10:55 AM,28.4,21.2,74,30.26,10.0,North,12.7,-,N/A,,Overcast,350,2011-11-27 16:55:00
11:15 AM,30.2,21.2,69,30.26,10.0,NNW,13.8,-,N/A,,Overcast,340,2011-11-27 17:15:00
12:15 PM,30.2,21.2,69,30.24,10.0,NNW,11.5,-,N/A,,Overcast,330,2011-11-27 18:15:00
12:35 PM,30.2,21.2,69,30.24,10.0,North,5.8,-,N/A,,Overcast,350,2011-11-27 18:35:00
1:15 PM,30.2,21.2,69,30.23,10.0,North,5.8,-,N/A,,Mostly Cloudy,350,2011-11-27 19:15:00
1:35 PM,30.2,21.2,69,30.23,10.0,North,8.1,-,N/A,,Scattered Clouds,350,2011-11-27 19:35:00
1:55 PM,30.2,21.2,69,30.22,10.0,North,6.9,-,N/A,,Scattered Clouds,10,2011-11-27 19:55:00
2:15 PM,33.8,21.2,60,30.21,10.0,North,6.9,-,N/A,,Scattered Clouds,350,2011-11-27 20:15:00
2:35 PM,32.0,21.2,64,30.20,10.0,North,4.6,-,N/A,,Scattered Clouds,10,2011-11-27 20:35:00
2:55 PM,32.0,21.2,64,30.20,10.0,North,5.8,-,N/A,,Clear,350,2011-11-27 20:55:00
3:15 PM,33.8,21.2,60,30.20,10.0,NNW,5.8,-,N/A,,Clear,330,2011-11-27 21:15:00
3:34 PM,33.8,21.2,60,30.20,10.0,North,3.5,-,N/A,,Clear,360,2011-11-27 21:34:00
3:54 PM,32.0,21.2,64,30.20,10.0,Calm,Calm,-,N/A,,Clear,0,2011-11-27 21:54:00
4:14 PM,32.0,21.2,64,30.19,10.0,Calm,Calm,-,N/A,,Clear,0,2011-11-27 22:14:00
4:35 PM,30.2,21.2,69,30.19,10.0,Calm,Calm,-,N/A,,Clear,0,2011-11-27 22:35:00
4:54 PM,28.4,21.2,74,30.20,10.0,Calm,Calm,-,N/A,,Clear,0,2011-11-27 22:54:00
5:14 PM,28.4,21.2,74,30.20,10.0,Calm,Calm,-,N/A,,Clear,0,2011-11-27 23:14:00
5:34 PM,26.6,21.2,80,30.20,10.0,Calm,Calm,-,N/A,,Clear,0,2011-11-27 23:34:00
5:54 PM,26.6,21.2,80,30.20,10.0,Calm,Calm,-,N/A,,Clear,0,2011-11-27 23:54:00
6:14 PM,23.0,19.4,86,30.19,10.0,Calm,Calm,-,N/A,,Clear,0,2011-11-28 00:14:00
6:54 PM,23.0,21.2,93,30.18,10.0,Calm,Calm,-,N/A,,Clear,0,2011-11-28 00:54:00
7:14 PM,23.0,19.4,86,30.18,10.0,SSE,3.5,-,N/A,,Clear,150,2011-11-28 01:14:00
7:35 PM,24.8,21.2,86,30.17,10.0,SSE,4.6,-,N/A,,Clear,150,2011-11-28 01:35:00
7:55 PM,24.8,21.2,86,30.16,10.0,SSE,4.6,-,N/A,,Clear,150,2011-11-28 01:55:00
8:14 PM,24.8,21.2,86,30.16,10.0,South,4.6,-,N/A,,Clear,170,2011-11-28 02:14:00
8:35 PM,23.0,21.2,93,30.15,10.0,SSE,5.8,-,N/A,,Clear,160,2011-11-28 02:35:00
8:55 PM,24.8,21.2,86,30.14,10.0,SSE,6.9,-,N/A,,Clear,160,2011-11-28 02:55:00
9:15 PM,23.0,21.2,93,30.14,10.0,SSE,6.9,-,N/A,,Clear,160,2011-11-28 03:15:00
9:35 PM,24.8,21.2,86,30.13,10.0,South,6.9,-,N/A,,Clear,170,2011-11-28 03:35:00
9:55 PM,23.0,21.2,93,30.13,10.0,SSE,4.6,-,N/A,,Clear,160,2011-11-28 03:55:00
10:15 PM,23.0,19.4,86,30.13,10.0,South,4.6,-,N/A,,Clear,170,2011-11-28 04:15:00
10:34 PM,23.0,19.4,86,30.12,10.0,South,6.9,-,N/A,,Clear,170,2011-11-28 04:34:00
11:15 PM,21.2,19.4,93,30.10,10.0,SSE,6.9,-,N/A,,Clear,160,2011-11-28 05:15:00
11:35 PM,21.2,19.4,93,30.10,10.0,SE,8.1,-,N/A,,Clear,140,2011-11-28 05:35:00
11:55 PM,21.2,19.4,93,30.10,10.0,SSE,6.9,-,N/A,,Clear,150,2011-11-28 05:55:00